Kodiak, AK

12:57 PM AKST on February 20, 2018 (GMT -0900)
Kodiak

Weather History for PADQ - November, 2012

Change the Weather History Date:

Tuesday, November 6, 2012

  Actual Average Record
Temperature  
Mean Temperature 32 °F 36 °F  
Max Temperature 35 °F 41 °F 50 °F (1979)
Min Temperature 29 °F 30 °F 15 °F (1956)
Degree Days  
Heating Degree Days 33 30  
Month to date heating degree days 173 175  
Since 1 July heating degree days 2187 2037  
Cooling Degree Days 0 0  
Month to date cooling degree days 0 0  
Year to date cooling degree days 0 1  
Moisture  
Dew Point 21 °F    
Average Humidity 0    
Maximum Humidity 0    
Minimum Humidity 0    
Precipitation  
Precipitation T in 0.22 in 0.88 in (1963)
Month to date precipitation 1.41 1.36  
Year to date precipitation 49.17 63.76  
Snow  
Snow T in 0.20 in 2.70 in (2004)
Month to date snowfall 0.3 0.7  
Since 1 July snowfall 0.7 1.8  
Since 1 September snowfall 0.7 1.8  
Snow Depth 0.00 in    
Sea Level Pressure  
Sea Level Pressure 29.88 in    
Wind  
Wind Speed 18 mph (WNW)    
Max Wind Speed 26 mph    
Max Gust Speed 37 mph    
Visibility 9 miles    
Events Snow    
T = Trace of Precipitation, MM = Missing Value Source: NWS Daily Summary

Daily Weather History Graph

Daily Weather History Graph

Search for Another Location

Airport or City:

Trip Planner

Search our weather history database for the weather conditions in past years. The results will help you decide how hot, cold, wet, or windy it might be!

Date:

Astronomy

Nov. 06, 2012 Rise Set
Actual Time 8:36 AM AKST 5:10 PM AKST
Civil Twilight 7:53 AM AKST 5:53 PM AKST
Nautical Twilight 7:06 AM AKST 6:39 PM AKST
Astronomical Twilight 6:20 AM AKST 7:25 PM AKST
Moon No Moon Rise 2:20 PM AKST (11/6)
Length of Visible Light 9h 59m
Length of Day
8h 33m
Waning Gibbous, 51% of the Moon is Illuminated
Nov 6
Waning Gibbous
Nov 6
Last Quarter
Nov 13
New
Nov 20
First Quarter
Nov 28
Full

Hourly Weather History & Observations

Time (AKST) Temp. Windchill Dew Point Humidity Pressure Visibility Wind Dir Wind Speed Gust Speed Precip Events Conditions
12:53 AM 28.9 °F 16.9 °F 19.9 °F 69% 29.69 in 9.0 mi NW 17.3 mph 26.5 mph 0.00 in Snow Light Snow
1:53 AM 28.9 °F 17.7 °F 19.0 °F 67% 29.70 in 10.0 mi NW 15.0 mph 25.3 mph 0.00 in   Overcast
3:13 AM 28.4 °F 17.0 °F 19.4 °F 69% 29.73 in 9.0 mi WNW 15.0 mph - 0.00 in Snow Light Snow
3:53 AM 30.0 °F 19.1 °F 21.0 °F 69% 29.73 in 6.0 mi WNW 15.0 mph 23.0 mph 0.00 in Snow Light Snow
4:20 AM 30.2 °F 17.8 °F 21.2 °F 69% 29.72 in 9.0 mi NW 19.6 mph 28.8 mph 0.00 in Snow Light Snow
4:53 AM 28.9 °F 16.1 °F 23.0 °F 78% 29.73 in 8.0 mi WNW 19.6 mph 28.8 mph 0.00 in Snow Light Snow
5:20 AM 30.2 °F 18.5 °F 21.2 °F 69% 29.73 in 9.0 mi WNW 17.3 mph 26.5 mph 0.00 in Snow Light Snow
5:53 AM 30.0 °F 18.3 °F 21.0 °F 69% 29.74 in 9.0 mi WNW 17.3 mph 32.2 mph 0.00 in Snow Light Snow
6:53 AM 30.0 °F 16.3 °F 23.0 °F 75% 29.75 in 9.0 mi WNW 24.2 mph 36.8 mph 0.00 in Snow Light Snow
7:05 AM 30.2 °F 16.2 °F 23.0 °F 75% 29.75 in 9.0 mi WNW 25.3 mph 35.7 mph 0.00 in Snow Light Snow
7:12 AM 30.2 °F 16.2 °F 23.0 °F 75% 29.75 in 9.0 mi WNW 25.3 mph 35.7 mph 0.00 in Snow Light Snow
7:53 AM 30.0 °F 17.9 °F 24.1 °F 79% 29.78 in 9.0 mi WNW 18.4 mph 32.2 mph 0.00 in Snow Light Snow
8:53 AM 30.9 °F 17.8 °F 24.1 °F 76% 29.81 in 9.0 mi WNW 23.0 mph 35.7 mph 0.00 in Snow Light Snow
9:53 AM 30.9 °F 17.2 °F 24.1 °F 76% 29.83 in 8.0 mi WNW 25.3 mph 33.4 mph 0.00 in Snow Light Snow
10:53 AM 30.9 °F 17.8 °F 24.1 °F 76% 29.86 in 9.0 mi WNW 23.0 mph 35.7 mph 0.00 in Snow Light Snow
11:53 AM 32.0 °F 18.4 °F 23.0 °F 69% 29.90 in 9.0 mi WNW 26.5 mph 33.4 mph 0.00 in   Mostly Cloudy
12:53 PM 34.0 °F 23.0 °F 24.1 °F 67% 29.91 in 10.0 mi WNW 18.4 mph 35.7 mph N/A   Scattered Clouds
1:53 PM 33.1 °F 21.5 °F 21.9 °F 64% 29.93 in 10.0 mi NW 19.6 mph 31.1 mph N/A   Scattered Clouds
2:53 PM 34.0 °F 21.8 °F 21.0 °F 59% 29.94 in 10.0 mi WNW 23.0 mph 31.1 mph N/A   Scattered Clouds
3:53 PM 33.1 °F 20.3 °F 21.0 °F 61% 29.97 in 10.0 mi WNW 24.2 mph 33.4 mph N/A   Scattered Clouds
4:53 PM 33.1 °F 22.2 °F 18.0 °F 54% 29.99 in 10.0 mi WNW 17.3 mph 29.9 mph N/A   Scattered Clouds
5:53 PM 34.0 °F 21.8 °F 16.0 °F 48% 30.00 in 10.0 mi WNW 23.0 mph 29.9 mph N/A   Partly Cloudy
6:53 PM 35.1 °F 23.8 °F 16.0 °F 46% 30.03 in 10.0 mi WNW 20.7 mph 36.8 mph N/A   Partly Cloudy
7:53 PM 34.0 °F 25.5 °F 19.9 °F 56% 30.06 in 10.0 mi WNW 11.5 mph 17.3 mph N/A   Clear
8:53 PM 34.0 °F 26.6 °F 21.0 °F 59% 30.08 in 10.0 mi WNW 9.2 mph 17.3 mph N/A   Clear
9:53 PM 34.0 °F - 19.9 °F 56% 30.10 in 10.0 mi Calm Calm - N/A   Clear
10:53 PM 32.0 °F 25.6 °F 21.0 °F 64% 30.12 in 10.0 mi North 6.9 mph - N/A   Clear
11:53 PM 33.1 °F 26.9 °F 18.0 °F 54% 30.13 in 10.0 mi Variable 6.9 mph - N/A   Clear